TimeCDT,TemperatureF,Dew PointF,Humidity,Sea Level PressureIn,VisibilityMPH,Wind Direction,Wind SpeedMPH,Gust SpeedMPH,PrecipitationIn,Events,Conditions,WindDirDegrees,DateUTC
12:52 AM,72.0,71.1,97,29.93,7.0,Calm,Calm,-,N/A,,Overcast,0,2013-08-08 05:52:00
1:52 AM,70.0,70.0,100,29.91,10.0,NNW,4.6,-,N/A,,Clear,330,2013-08-08 06:52:00
2:52 AM,70.0,68.0,93,29.91,10.0,NNW,6.9,-,N/A,,Clear,340,2013-08-08 07:52:00
3:52 AM,68.0,66.9,96,29.91,10.0,North,4.6,-,N/A,,Clear,360,2013-08-08 08:52:00
4:15 AM,68.0,66.2,94,29.92,9.0,North,6.9,-,N/A,,Scattered Clouds,360,2013-08-08 09:15:00
4:24 AM,68.0,68.0,100,29.92,7.0,North,6.9,-,N/A,,Mostly Cloudy,10,2013-08-08 09:24:00
4:32 AM,68.0,68.0,100,29.92,4.0,NNE,8.1,-,N/A,,Mostly Cloudy,20,2013-08-08 09:32:00
4:37 AM,68.0,68.0,100,29.92,1.8,NNE,6.9,-,N/A,,Overcast,20,2013-08-08 09:37:00
4:44 AM,68.0,68.0,100,29.92,0.8,NNE,5.8,-,N/A,,Overcast,20,2013-08-08 09:44:00
4:52 AM,68.0,68.0,100,29.91,0.8,North,5.8,-,N/A,,Mist,10,2013-08-08 09:52:00
5:41 AM,68.0,68.0,100,29.92,0.2,North,5.8,-,N/A,Fog,Fog,10,2013-08-08 10:41:00
5:52 AM,68.0,68.0,100,29.91,0.2,Calm,Calm,-,N/A,Fog,Fog,0,2013-08-08 10:52:00
6:52 AM,69.1,69.1,100,29.94,0.2,North,5.8,-,N/A,Fog,Fog,360,2013-08-08 11:52:00
6:59 AM,69.8,69.8,100,29.95,0.8,North,3.5,-,N/A,,Overcast,360,2013-08-08 11:59:00
7:22 AM,69.8,69.8,100,29.96,0.2,NNE,4.6,-,N/A,Fog,Fog,20,2013-08-08 12:22:00
7:52 AM,68.0,68.0,100,29.94,0.2,NNE,5.8,-,N/A,Fog,Fog,30,2013-08-08 12:52:00
8:40 AM,69.8,69.8,100,29.96,0.5,NE,5.8,-,N/A,Fog,Fog,40,2013-08-08 13:40:00
8:52 AM,70.0,70.0,100,29.95,0.8,NE,4.6,-,N/A,,Overcast,50,2013-08-08 13:52:00
9:02 AM,69.8,69.8,100,29.96,1.0,NE,5.8,-,N/A,,Overcast,50,2013-08-08 14:02:00
9:14 AM,71.6,71.6,100,29.96,2.0,NE,4.6,-,N/A,,Overcast,50,2013-08-08 14:14:00
9:19 AM,71.6,69.8,94,29.96,3.0,Variable,3.5,-,N/A,,Overcast,0,2013-08-08 14:19:00
9:52 AM,73.0,70.0,90,29.97,4.0,Calm,Calm,-,N/A,,Overcast,0,2013-08-08 14:52:00
10:40 AM,75.2,71.6,89,29.98,5.0,NE,4.6,-,N/A,,Overcast,40,2013-08-08 15:40:00
10:52 AM,75.0,71.1,87,29.97,6.0,ENE,4.6,-,N/A,,Overcast,60,2013-08-08 15:52:00
11:52 AM,77.0,72.0,84,29.96,8.0,NNE,6.9,-,N/A,,Overcast,20,2013-08-08 16:52:00
12:52 PM,78.1,70.0,76,29.95,10.0,Calm,Calm,-,N/A,,Overcast,0,2013-08-08 17:52:00
1:01 PM,78.8,71.6,78,29.96,10.0,Calm,Calm,-,N/A,,Overcast,0,2013-08-08 18:01:00
1:30 PM,78.8,69.8,74,29.95,10.0,Calm,Calm,-,N/A,,Scattered Clouds,0,2013-08-08 18:30:00
1:52 PM,78.1,71.1,79,29.94,10.0,NNE,4.6,-,N/A,,Scattered Clouds,30,2013-08-08 18:52:00
2:07 PM,78.8,71.6,78,29.94,10.0,NNE,3.5,-,N/A,,Mostly Cloudy,20,2013-08-08 19:07:00
2:34 PM,77.0,71.6,83,29.93,10.0,NNE,8.1,-,N/A,,Scattered Clouds,20,2013-08-08 19:34:00
2:52 PM,78.1,71.1,79,29.91,10.0,NNE,9.2,-,N/A,,Clear,30,2013-08-08 19:52:00
3:52 PM,80.1,71.1,74,29.92,10.0,NNE,6.9,-,N/A,,Partly Cloudy,30,2013-08-08 20:52:00
4:38 PM,80.6,71.6,74,29.94,10.0,NE,6.9,-,N/A,,Mostly Cloudy,40,2013-08-08 21:38:00
4:52 PM,80.1,70.0,71,29.93,10.0,NE,4.6,-,N/A,,Mostly Cloudy,50,2013-08-08 21:52:00
5:52 PM,80.1,69.1,69,29.94,10.0,NNE,4.6,-,N/A,,Clear,30,2013-08-08 22:52:00
6:52 PM,78.1,70.0,76,29.93,10.0,NNE,5.8,-,N/A,,Clear,30,2013-08-08 23:52:00
7:52 PM,75.0,70.0,84,29.94,10.0,NNE,4.6,-,N/A,,Scattered Clouds,30,2013-08-09 00:52:00
8:52 PM,73.0,69.1,87,29.95,10.0,NNE,5.8,-,N/A,,Scattered Clouds,30,2013-08-09 01:52:00
9:52 PM,71.1,66.9,87,29.96,10.0,NNE,6.9,-,N/A,,Partly Cloudy,30,2013-08-09 02:52:00
10:52 PM,69.1,64.9,87,29.97,10.0,ENE,3.5,-,N/A,,Clear,60,2013-08-09 03:52:00
11:52 PM,70.0,63.0,78,29.98,10.0,ENE,3.5,-,N/A,,Clear,60,2013-08-09 04:52:00